Hourly Data Report for October 05, 2017

All times are specified in Local Standard Time (LST). Add 1 hour to adjust for Daylight Saving Time where and when it is observed.

ST. PETERS
PRINCE EDWARD ISLAND

46°27'01.000" N
62°34'33.000" W
29.70 m
8300562
71310
ZSP

Download Data

Hourly Data (October 2017)
Hourly Data Report for October 5, 2017
Temp Definition
°C
Dew Point Temp Definition
°C
Rel Hum Definition
%
Wind Dir Definition
10's deg

Wind Spd Definition
km/h
Visibility Definition
km
Stn Press Definition
kPa
Hmdx Definition


Wind Chill Definition


Weather Definition


TIME
00:00 15.2 10.7 75 21 28   100.73     LegendNANA
01:00 15.1 10.3 73 21 25   100.63     LegendNANA
02:00 15.3 10.4 73 21 30   100.58     LegendNANA
03:00 15.3 11.7 79 22 26   100.60     LegendNANA
04:00 15.3 12.5 83 21 25   100.49     LegendNANA
05:00 15.6 12.7 83 22 26   100.49     LegendNANA
06:00 15.4 12.8 84 21 26   100.47     LegendNANA
07:00 16.0 13.2 84 23 20   100.54     LegendNANA
08:00 16.6 13.7 83 24 22   100.61     LegendNANA
09:00 17.9 14.0 78 26 31   100.67     LegendNANA
10:00 16.7 13.2 80 28 26   100.78     LegendNANA
11:00 16.3 9.4 64 29 28   100.84     LegendNANA
12:00 15.9 8.7 62 30 26   100.86     LegendNANA
13:00 15.7 8.9 64 30 23   100.85     LegendNANA
14:00 15.5 9.7 68 30 15   100.84     LegendNANA
15:00 15.6 9.5 67 33 9   100.84     LegendNANA
16:00 15.1 9.7 70 33 9   100.85     LegendNANA
17:00 14.4 9.2 71   0   100.85     LegendNANA
18:00 11.2 8.9 86 17 4   100.87     LegendNANA
19:00 10.3 8.8 91   0   100.93     LegendNANA
20:00 10.7 8.6 87 14 8   100.91     LegendNANA
21:00 11.1 8.9 86 17 10   100.97     LegendNANA
22:00 11.1 9.6 91 18 11   101.00     LegendNANA
23:00 10.6 9.2 91 16 11   100.95     LegendNANA

Notes on Data Quality.

Legend

  • E = Estimated
  • M = Missing
  • NA = Not Available
  • ‡ = Partner data that is not subject to review by the National Climate Archives
Date modified: